Regional Weather Roundup
Issued by NWS Jackson, KY

Home | Current Version | Previous Version | Text Only | Print | Product List | Glossary On
Versions: 1 2 3 4 5 6 7 8 9 10 11 12 13 14 15 16 17 18 19 20 21 22 23 24 25 26 27 28 29 30 31 32 33 34 35 36 37 38 39 40 41 42 43 44 45 46 47 48 49 50
000
ASUS43 KJKL 280119
RWRJKL

EAST KENTUCKY HOURLY WEATHER ROUNDUP
NATIONAL WEATHER SERVICE JACKSON KY
800 PM EST TUE JAN 27 2015

NOTE: "FAIR" INDICATES FEW OR NO CLOUDS BELOW 12,000 FEET WITH
NO SIGNIFICANT WEATHER AND/OR OBSTRUCTIONS TO VISIBILITY.

* THESE REPORTS ARE NOT UNDER NWS QUALITY CONTROL AND MAY NOT
  REPORT WEATHER SUCH AS PRECIPITATION AND FOG.

KYZ079-080-083-085-087-088-110-112-115-119-120-280200
...EASTERN KENTUCKY...

CITY           SKY/WX    TMP DP  RH WIND       PRES   REMARKS
JACKSON        CLEAR     26  12  55 N6        30.12R WCI  19
LONDON         CLOUDY    31  19  61 NW6       30.13R WCI  25
SOMERSET*      CLOUDY    30  23  74 N3        30.18R
MONTICELLO*    CLOUDY    32  27  82 NW6       30.19R WCI  26
MIDDLESBORO*   CLOUDY    31  23  72 NW8       30.14R WCI  23
HARLAN APT*    CLEAR     30  21  69 W7        30.09R WCI  23
HAZARD APT*    CLEAR     28  10  47 NW7       30.12  WCI  21
PIKEVILLE APT* CLEAR     23  14  68 N5        30.10R WCI  17
BIG SANDY*     CLEAR     26  14  61 N6        30.12R WCI  19
MOREHEAD APT*  PTCLDY    23  12  63 N6        30.19R WCI  16
ASHLAND*       MOCLDY   N/A N/A N/A N8        30.18R
$$

KYZ035-036-041-042-044-050-067-078-099-280200
...CENTRAL KENTUCKY...

CITY           SKY/WX    TMP DP  RH WIND       PRES   REMARKS
MT STERLING*   CLEAR     27  18  69 NE3       30.18R
FLEMING/MASON* CLEAR     21  14  73 NE7       30.20R WCI  13
DANVILLE*      CLEAR     27  19  74 NW3       30.18R
RICHMOND*      CLEAR     27  18  69 N3        30.16R
LEXINGTON      CLEAR     25  12  58 N5        30.17R WCI  19
FRANKFORT      CLEAR     26  12  55 NW5       30.18R WCI  20
$$

KYZ091>093-OHZ055-061-077-WVZ005-015-034-035-042-280200
...SOUTHERN OHIO/WEST VIRGINIA...

CITY           SKY/WX    TMP DP  RH WIND       PRES   REMARKS
COVINGTON      CLEAR     23  12  62 N13       30.20R WCI  11
COLUMBUS       CLEAR     18  10  71 N6        30.18R WCI  10
DAYTON         CLEAR     14   9  80 NW3       30.20R
WILMINGTON     CLEAR     17   9  70 N7        30.19R WCI   8
HUNTINGTON     CLEAR     22  13  68 N8        30.16R WCI  12
CHARLESTON     FLURRIES  23  15  71 VRB6      30.13R WCI  16
PINEVILLE*     CLOUDY    24  17  73 MISG      30.11R
BECKLEY        FLURRIES  18  11  74 N10       29.99R WCI   6
BLUEFIELD      PTCLDY    20   8  60 NW12G21   29.96R WCI   8
$$

VAZ002-007-008-TNZ017-027-036-066-071-280200
...SOUTHWEST VIRGINIA/EAST TENNESSEE...

CITY           SKY/WX    TMP DP  RH WIND       PRES   REMARKS
WISE*          CLEAR     27  19  74 W7        30.01R WCI  19
JONESVILLE*    MOCLDY    30  21  69 NW5       30.11R WCI  25
ABINGDON*      CLEAR     29  18  62 W6        30.01R WCI  23
BRISTOL        PTCLDY    29  20  69 W8        30.06R WCI  21
KNOXVILLE      CLOUDY    34  27  75 N7        30.13R WCI  28
OAK RIDGE      CLOUDY    34  28  79 VRB7      30.15R WCI  28
CROSSVILLE     CLOUDY    31  25  78 N10       30.11R WCI  22
NASHVILLE      CLOUDY    37  30  75 N7G21     30.21R WCI  32
$$

...KEY TO REMARKS...
VSB - VISIBILITY IN MILES
WCI - WIND CHILL INDEX
HX  - HEAT INDEX

$$


USA.gov is the U.S. government's official web portal to all federal, state and local government web resources and services.